Location: Escondida
(34.1015°N, 106.8964°W)
Time: 14:07:32
(UTC+00:00)

BlueWalker 3 - Pass Details

Date: 22 February 2026
Orbit: 451 x 457 km, 53.2° (Epoch: 14 March)

Event Time Altitude Azimuth Distance (km) Brightness Sun altitude
Exits shadow 12:36:07 - 207° (SSW) 1,920 4.6 -14.9°
Reaches altitude 10° 12:36:57 10° 204° (SSW) 1,588 4.3 -14.7°
Maximum altitude 12:40:23 45° 131° (SE) 631 2.8 -14.0°
Drops below altitude 10° 12:43:49 10° 57° (ENE) 1,595 5.3 -13.3°
Sets 12:46:01 0° 51° (NE) 2,470 6.2 -12.8°
